Regional Weather Roundup
Issued by NWS Burlington, VT

Home | Current Version | Previous Version | Text Only | Print | Product List | Glossary On
Versions: 1 2 3 4 5 6 7 8 9 10 11 12 13 14 15 16 17 18 19 20 21 22 23 24 25 26 27 28 29 30 31 32 33 34 35 36 37 38 39 40 41 42 43 44 45 46 47 48 49 50
000
ASUS41 KBTV 200230
RWRBTV
VERMONT REGIONAL WEATHER ROUNDUP
NATIONAL WEATHER SERVICE BURLINGTON VT
1000 PM EDT FRI SEP 19 2014

NOTE: "FAIR" INDICATES FEW OR NO CLOUDS BELOW 12,000 FEET WITH NO
SIGNIFICANT WEATHER AND/OR OBSTRUCTIONS TO VISIBILITY.

* THESE REPORTS ARE NOT UNDER NWS QUALITY CONTROL AND/OR DO NOT
  REPORT WEATHER SUCH AS PRECIPITATION AND FOG.

VTZ001>019-200300-
_____VERMONT_____


CITY           SKY/WX    TMP DP  RH WIND       PRES   REMARKS
BURLINGTON     PTCLDY    49  35  58 S7        30.27F
MONTPELIER     CLEAR     44  34  67 S8        30.34F
MORRISVILLE    CLEAR     37  33  85 CALM      30.30F
ST. JOHNSBURY*   N/A     40  38  93 MISG      30.31F
MIDDLEBURY*    FAIR      48  37  64 S6        30.29F
RUTLAND*       CLEAR     45  36  70 SE12      30.33F
SPRINGFIELD    CLEAR     39  37  92 CALM      30.38S
HIGHGATE*      FAIR      45  35  67 S8        30.24F
NEWPORT*       FAIR      40  32  72 S5        30.28F
BENNINGTON     CLEAR     49  35  58 NE5       30.34S
SUTTON*          N/A     39 N/A N/A MISG        N/A
GALLUP MILLS*    N/A     32 N/A N/A MISG        N/A
UNION VILLAGE*   N/A     39 N/A N/A MISG        N/A
MT. MANSFIELD*   N/A     37 N/A N/A SW14G30     N/A

_____LAKE CHAMPLAIN_____


CITY           SKY/WX    TMP DP  RH WIND       PRES   REMARKS
BURTON ISLAND*   N/A     54  39  58 SE20        N/A
COLCHESTER RF*   N/A     55  41  58 S28         N/A
DIAMOND ISL*     N/A     48  39  71 S16         N/A

$$

NYZ007-026>031-035-052-083-200300-
_____NORTHERN NEW YORK_____


CITY           SKY/WX    TMP DP  RH WIND       PRES   REMARKS
PLATTSBURGH    PTCLDY    41  36  82 S3        30.24F
SARANAC LAKE   CLEAR     32  31  96 CALM      30.21F
MASSENA        PTCLDY    40  38  93 CALM      30.21F
OGDENSBURG*    CLEAR     37  37 100 CALM      30.19F
POTSDAM*       CLEAR     43  43 100 S3        30.19F
PARISHVILLE*     N/A     50 N/A N/A SE17        N/A
WATERTOWN      PTCLDY    42  36  79 CALM      30.18F
FT DRUM        PTCLDY    48  38  68 SE13      30.18F
ALBANY         PTCLDY    53  37  54 S8        30.34R
GLENS FALLS    CLEAR     39  37  92 CALM      30.32F

$$
NHZ002-005-011-200300-
_____NEW HAMPSHIRE_____


CITY           SKY/WX    TMP DP  RH WIND       PRES   REMARKS
LEBANON        CLEAR     39  35  86 CALM      30.36S
KEENE          CLEAR     39  30  70 CALM      30.41R
MT WASHINGTON  MOCLDY    34  19  55 SW25        N/A
PLYMOUTH       FAIR      34  34 100 CALM      30.39F
WHITEFIELD     CLEAR     35  32  88 CALM      30.33F

$$

_____REGIONAL QUEBEC LOCATIONS_____


CITY           SKY/WX    TMP DP  RH WIND       PRES   REMARKS
MONTREAL       PTCLDY    50  37  62 SE12      30.21F
QUEBEC CITY    MOCLDY    43  36  75 N2        30.26S
SHERBROOKE     CLEAR     36  34  93 CALM      30.26F

_____REGIONAL ONTARIO LOCATIONS_____


CITY           SKY/WX    TMP DP  RH WIND       PRES   REMARKS
OTTAWA         MOCLDY    41  34  75 SE7       30.19F

______KEY______
VSB  - VISIBILITY IN MILES
WCI  - WIND CHILL INDEX
HX   - HEAT INDEX
$$



USA.gov is the U.S. government's official web portal to all federal, state and local government web resources and services.